Regional Weather Roundup
Issued by NWS

Home | Current Version | Previous Version | Graphics & Text | Print | Product List | Glossary On
Versions: 1 2 3 4 5 6 7 8 9 10 11 12 13 14 15 16 17 18 19 20 21 22 23 24 25 26 27 28 29 30 31 32 33 34 35 36 37 38 39 40 41 42 43 44 45 46 47 48 49 50
000
ASUS44 KMEG 290410
RWRTN
TENNESSEE HOURLY STATE WEATHER ROUNDUP
NATIONAL WEATHER SERVICE MEMPHIS TN
1100 PM CDT SUN AUG 28 2016

TNZ002-004-019-021-049-052-054-088>092-290500-
WEST TENNESSEE

CITY           SKY/WX    TMP DP  RH WIND       PRES   REMARKS
MEMPHIS INTL   PTCLDY    85  71  63 NE6       30.08S HX  90
NWS MEMPHIS      N/A     79 N/A N/A MISG        N/A
JACKSON        CLEAR     77  75  93 CALM      30.11R
DYERSBURG      CLEAR     79  72  78 MISG      30.11R
UNION CITY     CLEAR     79  75  89 CALM      30.11S
PARIS          CLEAR     75  73  94 N3        30.13S
LEXINGTON      CLEAR     75  73  94 CALM      30.11S
$$

TNZ008-025-027-028-033-062-065-066-290500-
NORTH MIDDLE TENNESSEE

CITY           SKY/WX    TMP DP  RH WIND       PRES   REMARKS
NASHVILLE      PTCLDY    78  70  76 SE3       30.13F
CLARKSVILLE    CLEAR     77  69  76 CALM      30.13F
COOKEVILLE     CLEAR     72  70  94 CALM      30.15F
CROSSVILLE     PTCLDY    69  67  93 NE5       30.22F
$$

TNZ061-075-076-078-094-096-097-290500-
SOUTH MIDDLE TENNESSEE

CITY           SKY/WX    TMP DP  RH WIND       PRES   REMARKS
FAYETTEVILLE   PTCLDY    75  70  83 NE9       30.13S
TULLAHOMA      CLEAR     73  70  88 CALM      30.16S
WINCHESTER     CLEAR     72  70  94 CALM      30.14F
MCMINNVILLE    CLEAR     72  72 100 NE3       30.16S
COLUMBIA       PTCLDY   N/A N/A N/A CALM      30.12S
SHELBYVILLE    CLEAR     75  73  94 E3        30.14R
$$

TNZ017-018-042-046-047-290500-
NORTHEAST TENNESSEE

CITY           SKY/WX    TMP DP  RH WIND       PRES   REMARKS
TRI CITIES     PTCLDY    71  69  93 CALM      30.20R
ELIZABETHTON     N/A     72  66  83 E6        30.21R
$$

TNZ012-013-036-069-073-074-290500-
CENTRAL EAST TENNESSEE

CITY           SKY/WX    TMP DP  RH WIND       PRES   REMARKS
KNOXVILLE      CLOUDY    75  67  76 CALM      30.15S
GATLINBURG     CLEAR     72  70  94 SW3       30.15S
MORRISTOWN     PTCLDY    73  72  94 CALM      30.17S
$$

TNZ083-085-099-290500-
SOUTHEAST TENNESSEE

CITY           SKY/WX    TMP DP  RH WIND       PRES   REMARKS
CHATTANOOGA    MOCLDY    75  73  93 CALM      30.14S
$$

SKY/WX REPORTED AS FAIR MEANS FEW OR NO CLOUDS BELOW
12 THOUSAND FEET.





USA.gov is the U.S. government's official web portal to all federal, state and local government web resources and services.